Regional Weather Roundup
Issued by NWS

Home | Current Version | Previous Version | Text Only | Print | Product List | Glossary On
Versions: 1 2 3 4 5 6 7 8 9 10 11 12 13 14 15 16 17 18 19 20 21 22 23 24 25 26 27 28 29 30 31 32 33 34 35 36 37 38 39 40 41 42 43 44 45 46 47 48 49 50
000
ASUS43 KOAX 031910
RWRNE

WEATHER ROUNDUP FOR NEBRASKA
NATIONAL WEATHER SERVICE OMAHA NE
100 PM CST SAT DEC 03 2016

NOTES: SATELLITE DATA IS BEING USED TO AUGMENT CLOUD COVER ABOVE
       12000 FEET.
       "FAIR" INDICATES FEW OR NO CLOUDS BELOW 12,000 FEET WITH NO
       SIGNIFICANT WEATHER AND/OR OBSTRUCTIONS TO VISIBILITY.

  * THESE STATIONS DO NOT REPORT WEATHER SUCH AS RAIN...SNOW OR FOG.

NEZ001>004-019>022-054>056-032000-
NEBRASKA PANHANDLE

CITY           SKY/WX    TMP DP  RH WIND       PRES   REMARKS
SCOTTSBLUFF    SUNNY     43  10  26 W20G28    29.95F
ALLIANCE       SUNNY     42  11  28 W18G26    29.93F
CHADRON        SUNNY     42  12  29 W22G29    29.92F
KIMBALL        SUNNY     42  17  37 W16       29.96F
SIDNEY         SUNNY     43  15  32 W12       29.98F
$$

NEZ057>060-069>072-079>082-032000-
SOUTHWEST NEBRASKA

CITY           SKY/WX    TMP DP  RH WIND       PRES   REMARKS
NORTH PLATTE   SUNNY     45  21  38 SW15G23   30.03F
IMPERIAL       SUNNY     44  18  35 S12G22    30.02
LEXINGTON      CLOUDY    37  31  82 S13       30.10F WCI  28
MCCOOK         CLOUDY    38  29  70 S15       30.09  WCI  29
OGALLALA       SUNNY     46  23  40 SW12      30.00F
$$

NEZ005>010-023>029-035>040-094-032000-
NORTH CENTRAL NEBRASKA

CITY           SKY/WX    TMP DP  RH WIND       PRES   REMARKS
VALENTINE      SUNNY     46  19  34 SW24G30   29.93F
AINSWORTH      SUNNY     45  24  42 SW17G29   29.96F
BROKEN BOW     PTSUNNY   39  28  64 S21G30    30.06F WCI  29
O`NEILL        CLOUDY    38  29  68 S17       30.07F WCI  29
ORD            CLOUDY    37  30  75 S15       30.09F WCI  28
THEDFORD       SUNNY     46  22  38 SW22G29   29.98F
$$

NEZ041-046>049-061>064-073>077-083>087-032000-
SOUTH CENTRAL NEBRASKA

CITY           SKY/WX    TMP DP  RH WIND       PRES   REMARKS
GRAND ISLAND   LGT SNOW  33  33 100 S9        30.16F FOG     WCI  25
AURORA         LGT SNOW  33  33 100 S6        30.17F WCI  27
HASTINGS       LGT SNOW  33  33 100 S5        30.17F FOG     WCI  29
HEBRON         LGT SNOW  33  32  98 CALM      30.20F VSB 1
HOLDREGE       LGT SNOW  33  32  96 S6        30.13F WCI  27
KEARNEY *      CLOUDY    34  30  86 S8        30.14F WCI  27
YORK           LGT SNOW  32  32 100 S3        30.19F VSB 1
$$

NEZ011>018-030>034-042>045-032000-
NORTHEAST NEBRASKA

CITY           SKY/WX    TMP DP  RH WIND       PRES   REMARKS
NORFOLK        LGT SNOW  33  30  88 S10       30.16F FOG     WCI  25
ALBION         LGT SNOW  34  32  93 S9        30.15F WCI  26
BLAIR          LGT SNOW  33  32  95 S6        30.23F WCI  28
FREMONT        LGT SNOW  33  33 100 SE5       30.23F WCI  28
TEKAMAH        LGT SNOW  33  31  92 S10       30.24F FOG     WCI  25
WAYNE          LGT SNOW  34  32  94 S15       30.19F WCI  24
$$

NEZ050>053-065>068-078-088>093-032000-
SOUTHEAST NEBRASKA

CITY           SKY/WX    TMP DP  RH WIND       PRES   REMARKS
LINCOLN        LGT SNOW  33  32  96 CALM      30.23F VSB 3/4
OMAHA EPPLEY   SNOW      33  29  85 SE6       30.25F VSB 1/2 WCI  28
BEATRICE       LGT RAIN  34  33  99 E3        30.20F
FALLS CITY     CLOUDY    37  32  82 E5        30.23F WCI  33
NEBRASKA CITY  LGT SNOW  32  32  99 N3        30.23F VSB 3/4
PLATTSMOUTH    LGT SNOW  33  30  88 SE5       30.24F VSB 3/4 WCI  28
$$

NEZ044-045-051>053-067-032000-
OMAHA AREA

CITY           SKY/WX    TMP DP  RH WIND       PRES   REMARKS
OMAHA EPPLEY   SNOW      33  29  85 SE6       30.25F VSB 1/2 WCI  28
BLAIR          LGT SNOW  33  32  95 S6        30.23F WCI  28
FREMONT        LGT SNOW  33  33 100 SE5       30.23F WCI  28
MILLARD        LGT SNOW  33  32  95 CALM      30.25F VSB 1
OFFUTT AFB     LGT SNOW  32  32 100 E3        30.24F FOG
PLATTSMOUTH    LGT SNOW  33  30  88 SE5       30.24F VSB 3/4 WCI  28
WAHOO          LGT SNOW  32  31  97 SE3       30.22F VSB 1
$$



USA.gov is the U.S. government's official web portal to all federal, state and local government web resources and services.